Tracking 23762 objects as of 21-Oct-2021
HD Live streaming from Space Station
objects crossing your sky now

USA 181

Track USA 181 now!
10-day predictions
USA 181 is classified as:


NORAD ID: 28537
Int'l Code: 2005-004A
Perigee: 808.1 km
Apogee: 1,418.6 km
Inclination: 63.4 °
Period: 107.4 minutes
Semi major axis: 7484 km
RCS: Unknown
Launch date: February 3, 2005
Source: United States (US)
Launch site: AIR FORCE EASTERN TEST RANGE (AFETR)
aabbcc
Your satellite tracking list
Your tracking list is empty




NASA's NSSDC Master Catalog

Two Line Element Set (TLE):
1 28537U 05004A   21278.80897053 0.00000000  00000-0  00000-0 0    07
2 28537  63.4158 137.9351 0407877 358.8904   1.1096 13.40822764    07
Source of the keplerian elements: McCants